Weather History for Macau International, Macao

Change the Weather History Date:

Wednesday, April 16, 2014

  Actual Average Record
Temperature  
Mean Temperature 70 °F -  
Max Temperature 73 °F 77 °F 82 °F (2011)
Min Temperature 68 °F 71 °F 60 °F (2006)
Cooling Degree Days 6    
Growing Degree Days 20 (Base 50)    
Moisture  
Dew Point 68 °F    
Average Humidity 87    
Maximum Humidity 94    
Minimum Humidity 77    
Precipitation  
Precipitation 0.00 in - - ()
Sea Level Pressure  
Sea Level Pressure 29.91 in    
Wind  
Wind Speed 9 mph ()    
Max Wind Speed 15 mph    
Max Gust Speed -    
Visibility 4.3 miles    
Events      
Averages and records for this station are not official NWS values.
T = Trace of Precipitation, MM = Missing Value Source: Averaged Metar Reports

Daily Weather History Graph

Daily Weather History Graph

Search for Another Location

Airport:

Trip Planner

Search our weather history database for the weather conditions in past years. The results will help you decide how hot, cold, wet, or windy it might be!

Date:

Astronomy

Apr. 16, 2014 Rise Set
Actual Time 6:05 AM CST 6:45 PM CST
Civil Twilight 5:42 AM CST 7:08 PM CST
Nautical Twilight 5:15 AM CST 7:35 PM CST
Astronomical Twilight 4:48 AM CST 8:02 PM CST
Moon 7:46 PM CST (4/16) 6:34 AM CST (4/16)
Length of Visible Light 13h 26m
Length of Day
12h 40m
Full, 99% of the Moon is Illuminated
Apr 16
Full
Apr 22
Last Quarter
Apr 29
New
May 7
First Quarter
May 15
Full

Hourly Weather History & Observations

Time (CST) Temp. Dew Point Humidity Pressure Visibility Wind Dir Wind Speed Gust Speed Precip Events Conditions
12:00 AM 71.6 °F 68.0 °F 88% 29.98 in 5.6 mi East 11.5 mph - N/A   Scattered Clouds
12:30 AM 71.6 °F 68.0 °F 88% 29.98 in 5.6 mi East 10.4 mph - N/A   Scattered Clouds
1:00 AM 71.6 °F 68.0 °F 88% 29.98 in 6.2 mi East 9.2 mph - N/A   Scattered Clouds
1:30 AM 71.6 °F 68.0 °F 88% 29.95 in 5.0 mi ESE 9.2 mph - N/A   Scattered Clouds
2:00 AM 70 °F 67 °F 88% 29.97 in 5 mi ESE 6.9 mph - -  
2:00 AM 71.6 °F 68.0 °F 88% 29.95 in 4.3 mi ESE 10.4 mph - N/A   Scattered Clouds
2:30 AM 71.6 °F 68.0 °F 88% 29.95 in 4.3 mi East 10.4 mph - N/A   Scattered Clouds
3:00 AM 71.6 °F 68.0 °F 88% 29.92 in 4.3 mi East 9.2 mph - N/A   Scattered Clouds
3:30 AM 71.6 °F 68.0 °F 88% 29.92 in 4.3 mi East 9.2 mph - N/A   Scattered Clouds
4:00 AM 71.6 °F 68.0 °F 88% 29.89 in 4.3 mi Variable 8.1 mph - N/A   Scattered Clouds
4:30 AM 71.6 °F 68.0 °F 88% 29.89 in 4.3 mi East 9.2 mph - N/A   Scattered Clouds
5:00 AM 69 °F 67 °F 92% 29.93 in 5 mi East 6.9 mph - -  
5:00 AM 71.6 °F 68.0 °F 88% 29.89 in 4.3 mi East 9.2 mph - N/A   Scattered Clouds
5:30 AM 71.6 °F 68.0 °F 88% 29.89 in 4.3 mi East 8.1 mph - N/A   Scattered Clouds
6:00 AM 71.6 °F 68.0 °F 88% 29.92 in 4.3 mi East 10.4 mph - N/A   Scattered Clouds
6:30 AM 71.6 °F 68.0 °F 88% 29.92 in 3.7 mi East 10.4 mph - N/A   Scattered Clouds
7:00 AM 71.6 °F 68.0 °F 88% 29.92 in 3.7 mi East 11.5 mph - N/A   Scattered Clouds
7:30 AM 71.6 °F 68.0 °F 88% 29.95 in 3.7 mi East 9.2 mph - N/A   Scattered Clouds
8:00 AM 71 °F 68 °F 87% 29.98 in 4 mi ESE 3.5 mph - -   Clear
8:00 AM 71.6 °F 68.0 °F 88% 29.95 in 3.1 mi ENE 6.9 mph - N/A   Scattered Clouds
8:30 AM 71.6 °F 68.0 °F 88% 29.95 in 3.1 mi East 6.9 mph - N/A   Scattered Clouds
9:00 AM 71.6 °F 68.0 °F 88% 29.98 in 3.7 mi East 10.4 mph - N/A   Scattered Clouds
9:30 AM 71.6 °F 68.0 °F 88% 29.98 in 3.1 mi East 8.1 mph - N/A   Scattered Clouds
10:00 AM 71.6 °F 68.0 °F 88% 29.98 in 3.1 mi ESE 8.1 mph - N/A   Scattered Clouds
10:30 AM 71.6 °F 68.0 °F 88% 29.98 in 3.1 mi East 11.5 mph - N/A   Scattered Clouds
11:00 AM 71 °F 66 °F 81% 29.99 in 4 mi ESE 6.9 mph - -   Clear
11:00 AM 71.6 °F 66.2 °F 83% 29.95 in 3.7 mi East 10.4 mph - N/A   Scattered Clouds
11:30 AM 73.4 °F 66.2 °F 78% 29.95 in 4.3 mi East 9.2 mph - N/A   Scattered Clouds
12:00 PM 73.4 °F 66.2 °F 78% 29.95 in 4.3 mi East 9.2 mph - N/A   Scattered Clouds
12:30 PM 73.4 °F 66.2 °F 78% 29.92 in 3.7 mi ESE 9.2 mph - N/A   Scattered Clouds
1:00 PM 73.4 °F 66.2 °F 78% 29.92 in 3.7 mi ESE 10.4 mph - N/A   Scattered Clouds
1:30 PM 73.4 °F 68.0 °F 83% 29.89 in 3.7 mi ESE 10.4 mph - N/A   Scattered Clouds
2:00 PM 73 °F 67 °F 77% 29.91 in 4 mi ESE 6.9 mph - -  
2:00 PM 73.4 °F 68.0 °F 83% 29.89 in 3.7 mi ESE 11.5 mph - N/A   Scattered Clouds
2:30 PM 73.4 °F 68.0 °F 83% 29.86 in 3.7 mi ESE 15.0 mph - N/A   Scattered Clouds
3:00 PM 73.4 °F 68.0 °F 83% 29.86 in 3.7 mi ESE 15.0 mph - N/A   Scattered Clouds
3:30 PM 73.4 °F 68.0 °F 83% 29.83 in 3.1 mi ESE 15.0 mph - N/A   Scattered Clouds
4:00 PM 73.4 °F 68.0 °F 83% 29.83 in 3.1 mi ESE 12.7 mph - N/A   Scattered Clouds
4:30 PM 73.4 °F 68.0 °F 83% 29.83 in 3.7 mi ESE 12.7 mph - N/A   Scattered Clouds
5:00 PM 71 °F 68 °F 86% 29.87 in 4 mi ESE 5.8 mph - -  
5:00 PM 73.4 °F 68.0 °F 83% 29.83 in 3.7 mi ESE 10.4 mph - N/A   Scattered Clouds
5:30 PM 73.4 °F 68.0 °F 83% 29.83 in 3.1 mi ESE 5.8 mph - N/A   Scattered Clouds
6:00 PM 73.4 °F 68.0 °F 83% 29.86 in 3.1 mi Variable 6.9 mph - N/A   Scattered Clouds
6:30 PM 73.4 °F 69.8 °F 88% 29.86 in 3.1 mi Variable 6.9 mph - N/A   Scattered Clouds
7:00 PM 73.4 °F 69.8 °F 88% 29.86 in 3.7 mi East 6.9 mph - N/A   Scattered Clouds
7:30 PM 73.4 °F 69.8 °F 88% 29.86 in 6.2 mi ESE 6.9 mph - N/A   Scattered Clouds
8:00 PM 71 °F 69 °F 91% 29.89 in 6 mi SE 5.8 mph - -  
8:00 PM 73.4 °F 69.8 °F 88% 29.86 in 6.2 mi ESE 10.4 mph - N/A   Scattered Clouds
8:30 PM 71.6 °F 69.8 °F 94% 29.86 in 6.2 mi ESE 9.2 mph - N/A   Scattered Clouds
9:00 PM 71.6 °F 69.8 °F 94% 29.89 in 5.6 mi ESE 8.1 mph - N/A   Scattered Clouds
9:30 PM 71.6 °F 69.8 °F 94% 29.89 in 5.6 mi ESE 6.9 mph - N/A   Scattered Clouds
10:00 PM 71.6 °F 69.8 °F 94% 29.89 in 5.6 mi ESE 6.9 mph - N/A   Scattered Clouds
10:30 PM 71.6 °F 69.8 °F 94% 29.89 in 5.6 mi East 6.9 mph - N/A   Scattered Clouds
11:00 PM 71 °F 69 °F 92% 29.91 in 5 mi SE 6.9 mph - -  
11:00 PM 71.6 °F 69.8 °F 94% 29.89 in 5.6 mi ESE 9.2 mph - N/A   Scattered Clouds
11:30 PM 71.6 °F 69.8 °F 94% 29.89 in 5.6 mi ESE 10.4 mph - N/A   Scattered Clouds